GONETS M 13 (M23)

Satellite information

Favourite Embed

Satellite Type and Status

PAYLOADIN ORBIT

Key statistics

Satellite GONETS M 13 (M23) at a glance.

Uptime

3866

Days in orbit

Revolutions

≈ 12.4

Per day

Orbit

LEO

Low Earth Orbit

Inclination

82.5

Latest

Satellite identification and parameters

Extended collection of information and parameters for GONETS M 13 (M23).

Object identification

Identified? True

Debris? False

Object name: GONETS M 13 (M23)

International designator: 2015-020C

Object number (NORAD): 40554

Object ID (CCSDS): 40554

Country: COMMONWEALTH OF INDEPENDENT STATES (CIS)

Current information (Y/N): Y

RCS size: LARGE

Orbital parameters

Period: 115.862 minutes

Inclination: 82.4873 deg

SMA: 7872.638 km

Apoapsis: 1505.464 km

Periapsis: 1483.541 km

RAAN: 174.2233 deg

Eccentricy: 0.00139237

Argument of periapsis: 111.6248 deg

Mean anomaly: 248.6316 deg

Mean motion: 12.42860434 rev/day

Mean motion (dot): 0.00000058 rev/day2

B* drag term: 0.00034782523 1/REarth

Two-line elements (TLE)

Creation date: Oct. 30, 2025, 3:32 a.m.

Reference frame: TEME

Reference center: EARTH

Epoch: Oct. 29, 2025, 9:22 p.m. UTC

TLE line 0: 0 GONETS M 13 (M23)

TLE line 1: 1 40554U 15020C 25302.89091532 .00000058 00000-0 34783-3 0 9996

TLE line 2: 2 40554 82.4873 174.2233 0013924 111.6248 248.6316 12.42860434480091

Live tracking on map

Real-time ground track for satellite GONETS M 13 (M23).

In-orbit conjunctions

There are no conjunctions computed for GONETS M 13 (M23), at the moment. Check back to stay up to date, as we update our databases every day.

Go to all conjunctions

Associated space launch

Gonets-M are an upgraded version of Gonets satellites, derived from military communications system Strela-3. Gonets-M constellation is tasked with monitoring ecological and industrial objects, providing communication and data transmission services, covering also the remote areas like the Far North region.

GONETS M 13 (M23) was lifted into orbit during the mission ‘Rokot / Briz-KM | Gonets M-21, Gonets M-22, Gonets M-23, Kosmos 2504’, on board a Rokot/Briz-KM space rocket.

The launch took place on March 31, 2015, 1:47 p.m. from 133/3 (133L).

For more information about the launch, click the button.

Launch to space Rokot / Briz-KM | Gonets M-21, Gonets M-22, Gonets M-23, Kosmos 2504
Rokot / Briz-KM | Gonets M-21, Gonets M-22, Gonets M-23, Kosmos 2504

Agency: N/A

Status: Launch Successful

Launch date: March 31, 2015, 1:47 p.m. UTC

Rocket: Rokot/Briz-KM

Launch pad: 133/3 (133L)

Location: Plesetsk Cosmodrome, Russian Federation

...

Latest news about this satellite

There are no fresh news available about this satellite. Check back as we update our databases every day.


Newsletter sign-up

Weekly statistics, charts and insights to help you stay on top of the space industry.